Location: Bonnesvalyn
(49.1218°N, 3.3177°E)
Time: 15:38:09
(UTC+00:00)

Okean-O - Pass Details

Date: 09 February 2023
Orbit: 637 x 638 km, 98.1° (Epoch: 25 March)

Event Time Altitude Azimuth Distance (km) Brightness Sun altitude
Exits shadow 20:05:48 29° 323° (NW) 1,175 4.3 -31.2°
Drops below altitude 10° 20:08:10 10° 337° (NNW) 2,043 5.6 -31.6°
Sets 20:10:26 0° 343° (NNW) 2,957 6.4 -31.9°
